This is the latest recevied weather packets stored in our database for station/object KC8YYF. If no packets are shown the sender has not sent any weather packets the latest 10 day(s).
| Time | Temp. | Humidity | Pressure | Rain* | Wind** | Luminosity | Snow |
|---|---|---|---|---|---|---|---|
| 1777767221 | 3.89° C | 86% | 1018.2 hPa | 0 mm | - | 0 W/m² | - |
| 1777766919 | 3.89° C | 86% | 1018.1 hPa | 0 mm | - | 0 W/m² | - |
| 1777766616 | 3.89° C | 86% | 1018.2 hPa | 0 mm | - | 0 W/m² | - |
| 1777766313 | 4.44° C | 85% | 1018.1 hPa | 0 mm | - | 1 W/m² | - |
| 1777766010 | 4.44° C | 85% | 1018 hPa | 0 mm | - | 1 W/m² | - |
| 1777765707 | 4.44° C | 85% | 1017.9 hPa | 0 mm | - | 2 W/m² | - |
| 1777765404 | 4.44° C | 84% | 1017.6 hPa | 0 mm | - | 6 W/m² | - |
| 1777765100 | 4.44° C | 83% | 1017.7 hPa | 0 mm | - | 2 W/m² | - |
| 1777764797 | 4.44° C | 83% | 1017.6 hPa | 0 mm | - | 4 W/m² | - |
| 1777764494 | 4.44° C | 83% | 1017.5 hPa | 0 mm | - | 2 W/m² | - |
| 1777764190 | 4.44° C | 83% | 1017.8 hPa | 0 mm | - | 4 W/m² | - |
| 1777763886 | 4.44° C | 83% | 1017.8 hPa | 0 mm | - | 5 W/m² | - |
| 1777763584 | 4.44° C | 84% | 1017.8 hPa | 0 mm | - | 5 W/m² | - |
| 1777763283 | 4.44° C | 86% | 1017.7 hPa | 0 mm | - | 4 W/m² | - |
| 1777762980 | 4.44° C | 85% | 1017.8 hPa | 0 mm | - | 10 W/m² | - |
| 1777762676 | 4.44° C | 86% | 1017.8 hPa | 0 mm | - | 13 W/m² | - |
| 1777762373 | 4.44° C | 85% | 1017.9 hPa | 0 mm | - | 15 W/m² | - |
| 1777762070 | 4.44° C | 85% | 1017.7 hPa | 0 mm | - | 20 W/m² | - |
| 1777761766 | 4.44° C | 85% | 1017.9 hPa | 0 mm | - | 18 W/m² | - |
| 1777761464 | 4.44° C | 85% | 1017.8 hPa | 0 mm | - | 21 W/m² | - |
| 1777761162 | 4.44° C | 85% | 1017.8 hPa | 0 mm | - | 21 W/m² | - |
| 1777760860 | 4.44° C | 84% | 1017.9 hPa | 0 mm | - | 17 W/m² | - |
| 1777760556 | 4.44° C | 83% | 1018 hPa | 0 mm | - | 17 W/m² | - |
| 1777760252 | 4.44° C | 83% | 1017.9 hPa | 0 mm | - | 18 W/m² | - |
| 1777759949 | 4.44° C | 83% | 1017.9 hPa | 0 mm | - | 28 W/m² | - |
* Rain latest hour (hover to see other rain measurements)
** Current wind speed in m/s (hover to see current wind gust speed)